Location: Saratoga Springs
(43.0831°N, 73.7850°W)
Time: 10:57:29
(UTC-04:00)

Vanguard 1 Rocket - Pass Details

Date: 17 April 2024
Orbit: 651 x 4220 km, 34.3° (Epoch: 19 May)

Event Time Altitude Azimuth Distance (km) Brightness Sun altitude
Rises 00:10:11 0° 269° (W) 4,310 11.0 -35.3°
Reaches altitude 10° 00:12:40 10° 263° (W) 3,653 10.5 -35.4°
Enters shadow 00:17:18 33° 240° (WSW) 2,826 9.6 -35.6°
Exits shadow 00:43:22 - 126° (SE) 7,472 11.7 -36.2°
Sets 00:45:43 0° 124° (SE) 7,991 11.9 -36.2°
